Time,TemperatureF,DewpointF,PressureIn,WindDirection,WindDirectionDegrees,WindSpeedMPH,WindSpeedGustMPH,Humidity,HourlyPrecipIn,Conditions,Clouds,dailyrainin,SoftwareType,DateUTC
2013-04-28 00:02:00,55.0,-99.9,-100.00,South,184,11.0,-999.0,0,-99.99,,,-99.99,,2013-04-28 05:02:00,
2013-04-28 00:12:00,56.0,-99.9,-100.00,South,179,14.0,-999.0,0,-99.99,,,-99.99,,2013-04-28 05:12:00,
2013-04-28 00:22:00,56.0,-99.9,-100.00,South,189,13.0,-999.0,0,-99.99,,,-99.99,,2013-04-28 05:22:00,
2013-04-28 00:33:00,58.0,-99.9,-100.00,SSW,193,17.0,-999.0,0,-99.99,,,-99.99,,2013-04-28 05:33:00,
2013-04-28 00:42:00,58.0,-99.9,-100.00,South,191,18.0,-999.0,0,-99.99,,,-99.99,,2013-04-28 05:42:00,
2013-04-28 00:52:00,59.0,-99.9,-100.00,South,189,17.0,-999.0,0,-99.99,,,-99.99,,2013-04-28 05:52:00,
2013-04-28 01:02:00,59.0,-99.9,-100.00,South,190,21.0,-999.0,0,-99.99,,,-99.99,,2013-04-28 06:02:00,
2013-04-28 01:13:00,59.0,-99.9,-100.00,South,190,22.0,-999.0,0,-99.99,,,-99.99,,2013-04-28 06:13:00,
2013-04-28 01:22:00,59.0,-99.9,-100.00,South,183,22.0,-999.0,0,-99.99,,,-99.99,,2013-04-28 06:22:00,
2013-04-28 01:32:00,59.0,-99.9,-100.00,South,185,26.0,-999.0,0,-99.99,,,-99.99,,2013-04-28 06:32:00,
2013-04-28 01:42:00,59.0,-99.9,-100.00,South,184,25.0,-999.0,0,-99.99,,,-99.99,,2013-04-28 06:42:00,
2013-04-28 01:52:00,58.0,-99.9,-100.00,South,182,28.0,-999.0,0,-99.99,,,-99.99,,2013-04-28 06:52:00,
2013-04-28 02:02:00,57.0,-99.9,-100.00,South,181,22.0,-999.0,0,-99.99,,,-99.99,,2013-04-28 07:02:00,
2013-04-28 02:11:00,57.0,-99.9,-100.00,South,179,23.0,-999.0,0,-99.99,,,-99.99,,2013-04-28 07:11:00,
2013-04-28 02:22:00,57.0,-99.9,-100.00,South,184,18.0,-999.0,0,-99.99,,,-99.99,,2013-04-28 07:22:00,
2013-04-28 02:32:00,56.0,-99.9,-100.00,South,189,19.0,-999.0,0,-99.99,,,-99.99,,2013-04-28 07:32:00,
2013-04-28 02:42:00,56.0,-99.9,-100.00,South,187,21.0,-999.0,0,-99.99,,,-99.99,,2013-04-28 07:42:00,
2013-04-28 02:52:00,56.0,-99.9,-100.00,South,185,18.0,-999.0,0,-99.99,,,-99.99,,2013-04-28 07:52:00,
2013-04-28 03:02:00,56.0,-99.9,-100.00,South,186,21.0,-999.0,0,-99.99,,,-99.99,,2013-04-28 08:02:00,
2013-04-28 03:12:00,56.0,-99.9,-100.00,South,189,22.0,-999.0,0,-99.99,,,-99.99,,2013-04-28 08:12:00,
2013-04-28 03:22:00,55.0,-99.9,-100.00,South,187,22.0,-999.0,0,-99.99,,,-99.99,,2013-04-28 08:22:00,
2013-04-28 03:32:00,55.0,-99.9,-100.00,South,191,23.0,-999.0,0,-99.99,,,-99.99,,2013-04-28 08:32:00,
2013-04-28 03:42:00,55.0,-99.9,-100.00,South,190,22.0,-999.0,0,-99.99,,,-99.99,,2013-04-28 08:42:00,
2013-04-28 03:52:00,55.0,-99.9,-100.00,South,188,21.0,-999.0,0,-99.99,,,-99.99,,2013-04-28 08:52:00,
2013-04-28 04:01:00,55.0,-99.9,-100.00,South,185,24.0,-999.0,0,-99.99,,,-99.99,,2013-04-28 09:01:00,
2013-04-28 04:12:00,54.0,-99.9,-100.00,South,189,22.0,-999.0,0,-99.99,,,-99.99,,2013-04-28 09:12:00,
2013-04-28 04:22:00,54.0,-99.9,-100.00,South,188,22.0,-999.0,0,-99.99,,,-99.99,,2013-04-28 09:22:00,
2013-04-28 04:33:00,54.0,-99.9,-100.00,South,188,20.0,-999.0,0,-99.99,,,-99.99,,2013-04-28 09:33:00,
2013-04-28 04:43:00,54.0,-99.9,-100.00,South,183,21.0,-999.0,0,-99.99,,,-99.99,,2013-04-28 09:43:00,
2013-04-28 04:53:00,54.0,-99.9,-100.00,South,190,26.0,-999.0,0,-99.99,,,-99.99,,2013-04-28 09:53:00,
2013-04-28 05:03:00,54.0,-99.9,-100.00,South,187,22.0,-999.0,0,-99.99,,,-99.99,,2013-04-28 10:03:00,
2013-04-28 05:12:00,54.0,-99.9,-100.00,SSW,195,22.0,-999.0,0,-99.99,,,-99.99,,2013-04-28 10:12:00,
2013-04-28 05:23:00,54.0,-99.9,-100.00,South,188,23.0,-999.0,0,-99.99,,,-99.99,,2013-04-28 10:23:00,
2013-04-28 05:32:00,53.0,-99.9,-100.00,South,191,18.0,-999.0,0,-99.99,,,-99.99,,2013-04-28 10:32:00,
2013-04-28 05:42:00,53.0,-99.9,-100.00,SSW,211,15.0,-999.0,0,-99.99,,,-99.99,,2013-04-28 10:42:00,
2013-04-28 05:53:00,53.0,-99.9,-100.00,South,189,21.0,-999.0,0,-99.99,,,-99.99,,2013-04-28 10:53:00,
2013-04-28 06:03:00,53.0,-99.9,-100.00,SSW,196,20.0,-999.0,0,-99.99,,,-99.99,,2013-04-28 11:03:00,
2013-04-28 06:11:00,53.0,-99.9,-100.00,South,189,14.0,-999.0,0,-99.99,,,-99.99,,2013-04-28 11:11:00,
2013-04-28 06:22:00,53.0,-99.9,-100.00,SSW,197,19.0,-999.0,0,-99.99,,,-99.99,,2013-04-28 11:22:00,
2013-04-28 06:32:00,53.0,-99.9,-100.00,South,191,18.0,-999.0,0,-99.99,,,-99.99,,2013-04-28 11:32:00,
2013-04-28 06:42:00,53.0,-99.9,-100.00,South,191,19.0,-999.0,0,-99.99,,,-99.99,,2013-04-28 11:42:00,
2013-04-28 06:52:00,52.0,-99.9,-100.00,SSW,192,14.0,-999.0,0,-99.99,,,-99.99,,2013-04-28 11:52:00,
2013-04-28 07:02:00,52.0,-99.9,-100.00,SSW,194,14.0,-999.0,0,-99.99,,,-99.99,,2013-04-28 12:02:00,
2013-04-28 07:12:00,52.0,-99.9,-100.00,South,186,15.0,-999.0,0,-99.99,,,-99.99,,2013-04-28 12:12:00,
2013-04-28 07:22:00,52.0,-99.9,-100.00,SSW,195,14.0,-999.0,0,-99.99,,,-99.99,,2013-04-28 12:22:00,
2013-04-28 07:32:00,51.0,-99.9,-100.00,SSW,193,12.0,-999.0,0,-99.99,,,-99.99,,2013-04-28 12:32:00,
2013-04-28 07:42:00,52.0,-99.9,-100.00,South,189,13.0,-999.0,0,-99.99,,,-99.99,,2013-04-28 12:42:00,
2013-04-28 07:52:00,52.0,-99.9,-100.00,SSW,196,18.0,-999.0,0,-99.99,,,-99.99,,2013-04-28 12:52:00,
2013-04-28 08:02:00,53.0,-99.9,-100.00,South,190,17.0,-999.0,0,-99.99,,,-99.99,,2013-04-28 13:02:00,
2013-04-28 08:11:00,54.0,-99.9,-100.00,South,191,20.0,-999.0,0,-99.99,,,-99.99,,2013-04-28 13:11:00,
2013-04-28 08:22:00,54.0,-99.9,-100.00,South,189,17.0,-999.0,0,-99.99,,,-99.99,,2013-04-28 13:22:00,
2013-04-28 08:32:00,55.0,-99.9,-100.00,SSW,201,17.0,-999.0,0,-99.99,,,-99.99,,2013-04-28 13:32:00,
2013-04-28 08:42:00,56.0,-99.9,-100.00,SSW,202,15.0,-999.0,0,-99.99,,,-99.99,,2013-04-28 13:42:00,
2013-04-28 08:52:00,57.0,-99.9,-100.00,South,190,14.0,-999.0,0,-99.99,,,-99.99,,2013-04-28 13:52:00,
2013-04-28 09:02:00,57.0,-99.9,-100.00,SSW,197,15.0,-999.0,0,-99.99,,,-99.99,,2013-04-28 14:02:00,
2013-04-28 09:11:00,58.0,-99.9,-100.00,SSW,195,19.0,-999.0,0,-99.99,,,-99.99,,2013-04-28 14:11:00,
2013-04-28 09:22:00,59.0,-99.9,-100.00,South,190,16.0,-999.0,0,-99.99,,,-99.99,,2013-04-28 14:22:00,
2013-04-28 09:32:00,60.0,-99.9,-100.00,SSW,198,15.0,-999.0,0,-99.99,,,-99.99,,2013-04-28 14:32:00,
2013-04-28 09:42:00,60.0,-99.9,-100.00,SSW,208,17.0,-999.0,0,-99.99,,,-99.99,,2013-04-28 14:42:00,
2013-04-28 09:52:00,61.0,-99.9,-100.00,SSW,192,19.0,-999.0,0,-99.99,,,-99.99,,2013-04-28 14:52:00,
2013-04-28 10:02:00,61.0,-99.9,-100.00,SSW,194,20.0,-999.0,0,-99.99,,,-99.99,,2013-04-28 15:02:00,
2013-04-28 10:12:00,61.0,-99.9,-100.00,SSW,194,20.0,-999.0,0,-99.99,,,-99.99,,2013-04-28 15:12:00,
2013-04-28 10:22:00,63.0,-99.9,-100.00,SSW,203,18.0,-999.0,0,-99.99,,,-99.99,,2013-04-28 15:22:00,
2013-04-28 10:33:00,63.0,-99.9,-100.00,SSW,193,14.0,-999.0,0,-99.99,,,-99.99,,2013-04-28 15:33:00,
2013-04-28 10:43:00,65.0,-99.9,-100.00,SSW,207,12.0,-999.0,0,-99.99,,,-99.99,,2013-04-28 15:43:00,
2013-04-28 10:53:00,65.0,-99.9,-100.00,SSW,203,22.0,-999.0,0,-99.99,,,-99.99,,2013-04-28 15:53:00,
2013-04-28 11:03:00,65.0,-99.9,-100.00,SSW,195,14.0,-999.0,0,-99.99,,,-99.99,,2013-04-28 16:03:00,
2013-04-28 11:13:00,67.0,-99.9,-100.00,SSW,199,15.0,-999.0,0,-99.99,,,-99.99,,2013-04-28 16:13:00,
2013-04-28 11:23:00,67.0,-99.9,-100.00,South,191,17.0,-999.0,0,-99.99,,,-99.99,,2013-04-28 16:23:00,
2013-04-28 11:33:00,68.0,-99.9,-100.00,SSW,197,15.0,-999.0,0,-99.99,,,-99.99,,2013-04-28 16:33:00,
2013-04-28 11:43:00,68.0,-99.9,-100.00,SSW,207,20.0,-999.0,0,-99.99,,,-99.99,,2013-04-28 16:43:00,
2013-04-28 11:53:00,69.0,-99.9,-100.00,SSW,198,13.0,-999.0,0,-99.99,,,-99.99,,2013-04-28 16:53:00,
2013-04-28 12:02:00,70.0,-99.9,-100.00,SSW,197,19.0,-999.0,0,-99.99,,,-99.99,,2013-04-28 17:02:00,
2013-04-28 12:12:00,71.0,-99.9,-100.00,South,179,18.0,-999.0,0,-99.99,,,-99.99,,2013-04-28 17:12:00,
2013-04-28 12:22:00,72.0,-99.9,-100.00,South,186,16.0,-999.0,0,-99.99,,,-99.99,,2013-04-28 17:22:00,
2013-04-28 12:32:00,73.0,-99.9,-100.00,SSW,203,15.0,-999.0,0,-99.99,,,-99.99,,2013-04-28 17:32:00,
2013-04-28 12:43:00,73.0,-99.9,-100.00,South,186,20.0,-999.0,0,-99.99,,,-99.99,,2013-04-28 17:43:00,
2013-04-28 12:52:00,76.0,-99.9,-100.00,South,191,18.0,-999.0,0,-99.99,,,-99.99,,2013-04-28 17:52:00,
2013-04-28 13:02:00,74.0,-99.9,-100.00,South,186,16.0,-999.0,0,-99.99,,,-99.99,,2013-04-28 18:02:00,
2013-04-28 13:12:00,77.0,-99.9,-100.00,SSW,192,16.0,-999.0,0,-99.99,,,-99.99,,2013-04-28 18:12:00,
2013-04-28 13:23:00,76.0,-99.9,-100.00,SSE,165,17.0,-999.0,0,-99.99,,,-99.99,,2013-04-28 18:23:00,
2013-04-28 13:32:00,77.0,-99.9,-100.00,SSW,194,21.0,-999.0,0,-99.99,,,-99.99,,2013-04-28 18:32:00,
2013-04-28 13:42:00,78.0,-99.9,-100.00,SSW,199,15.0,-999.0,0,-99.99,,,-99.99,,2013-04-28 18:42:00,
2013-04-28 13:52:00,78.0,-99.9,-100.00,SSW,192,13.0,-999.0,0,-99.99,,,-99.99,,2013-04-28 18:52:00,
2013-04-28 14:02:00,79.0,-99.9,-100.00,SSW,192,19.0,-999.0,0,-99.99,,,-99.99,,2013-04-28 19:02:00,
2013-04-28 14:11:00,80.0,-99.9,-100.00,SSW,207,17.0,-999.0,0,-99.99,,,-99.99,,2013-04-28 19:11:00,
2013-04-28 14:22:00,82.0,-99.9,-100.00,SSW,194,18.0,-999.0,0,-99.99,,,-99.99,,2013-04-28 19:22:00,
2013-04-28 14:32:00,82.0,-99.9,-100.00,SSW,200,18.0,-999.0,0,-99.99,,,-99.99,,2013-04-28 19:32:00,
2013-04-28 14:42:00,81.0,-99.9,-100.00,SSW,201,16.0,-999.0,0,-99.99,,,-99.99,,2013-04-28 19:42:00,
2013-04-28 14:52:00,82.0,-99.9,-100.00,SW,219,14.0,-999.0,0,-99.99,,,-99.99,,2013-04-28 19:52:00,
2013-04-28 15:02:00,82.0,-99.9,-100.00,SSW,200,19.0,-999.0,0,-99.99,,,-99.99,,2013-04-28 20:02:00,
2013-04-28 15:12:00,82.0,-99.9,-100.00,South,190,16.0,-999.0,0,-99.99,,,-99.99,,2013-04-28 20:12:00,
2013-04-28 15:22:00,83.0,-99.9,-100.00,SSW,201,15.0,-999.0,0,-99.99,,,-99.99,,2013-04-28 20:22:00,
2013-04-28 15:33:00,84.0,-99.9,-100.00,West,271,4.0,-999.0,0,-99.99,,,-99.99,,2013-04-28 20:33:00,
2013-04-28 15:42:00,84.0,-99.9,-100.00,SW,225,8.0,-999.0,0,-99.99,,,-99.99,,2013-04-28 20:42:00,
2013-04-28 15:52:00,84.0,-99.9,-100.00,SW,223,9.0,-999.0,0,-99.99,,,-99.99,,2013-04-28 20:52:00,
2013-04-28 16:01:00,84.0,-99.9,-100.00,SW,233,9.0,-999.0,0,-99.99,,,-99.99,,2013-04-28 21:01:00,
2013-04-28 16:12:00,82.0,-99.9,-100.00,NNW,341,14.0,-999.0,0,-99.99,,,-99.99,,2013-04-28 21:12:00,
2013-04-28 16:22:00,80.0,-99.9,-100.00,NNW,332,24.0,-999.0,0,-99.99,,,-99.99,,2013-04-28 21:22:00,
2013-04-28 16:33:00,79.0,-99.9,-100.00,North,-999,31.0,-999.0,0,-99.99,,,-99.99,,2013-04-28 21:33:00,
2013-04-28 16:43:00,77.0,-99.9,-100.00,North,-999,25.0,-999.0,0,-99.99,,,-99.99,,2013-04-28 21:43:00,
2013-04-28 16:53:00,77.0,-99.9,-100.00,NW,309,27.0,-999.0,0,-99.99,,,-99.99,,2013-04-28 21:53:00,
2013-04-28 17:03:00,77.0,-99.9,-100.00,North,-999,30.0,-999.0,0,-99.99,,,-99.99,,2013-04-28 22:03:00,
2013-04-28 17:13:00,77.0,-99.9,-100.00,NNW,344,30.0,-999.0,0,-99.99,,,-99.99,,2013-04-28 22:13:00,
2013-04-28 17:23:00,76.0,-99.9,-100.00,ESE,111,40.0,-999.0,0,-99.99,,,-99.99,,2013-04-28 22:23:00,
2013-04-28 17:34:00,76.0,-99.9,-100.00,East,91,42.0,-999.0,0,-99.99,,,-99.99,,2013-04-28 22:34:00,
2013-04-28 17:43:00,75.0,-99.9,-100.00,East,88,41.0,-999.0,0,-99.99,,,-99.99,,2013-04-28 22:43:00,
2013-04-28 17:53:00,74.0,-99.9,-100.00,South,174,38.0,-999.0,0,-99.99,,,-99.99,,2013-04-28 22:53:00,
2013-04-28 18:02:00,74.0,-99.9,-100.00,North,4,35.0,-999.0,0,-99.99,,,-99.99,,2013-04-28 23:02:00,
2013-04-28 18:12:00,74.0,-99.9,-100.00,North,5,36.0,-999.0,0,-99.99,,,-99.99,,2013-04-28 23:12:00,
2013-04-28 18:22:00,74.0,-99.9,-100.00,North,9,33.0,-999.0,0,-99.99,,,-99.99,,2013-04-28 23:22:00,
2013-04-28 18:32:00,72.0,-99.9,-100.00,East,90,35.0,-999.0,0,-99.99,,,-99.99,,2013-04-28 23:32:00,
2013-04-28 18:42:00,72.0,-99.9,-100.00,East,90,28.0,-999.0,0,-99.99,,,-99.99,,2013-04-28 23:42:00,
2013-04-28 18:52:00,72.0,-99.9,-100.00,North,11,27.0,-999.0,0,-99.99,,,-99.99,,2013-04-28 23:52:00,
2013-04-28 19:02:00,70.0,-99.9,-100.00,NE,39,25.0,-999.0,0,-99.99,,,-99.99,,2013-04-29 00:02:00,
2013-04-28 19:11:00,70.0,-99.9,-100.00,NNE,12,29.0,-999.0,0,-99.99,,,-99.99,,2013-04-29 00:11:00,
2013-04-28 19:22:00,69.0,-99.9,-100.00,NNE,13,25.0,-999.0,0,-99.99,,,-99.99,,2013-04-29 00:22:00,
2013-04-28 19:32:00,69.0,-99.9,-100.00,North,10,21.0,-999.0,0,-99.99,,,-99.99,,2013-04-29 00:32:00,
2013-04-28 19:42:00,69.0,-99.9,-100.00,North,10,21.0,-999.0,0,-99.99,,,-99.99,,2013-04-29 00:42:00,
2013-04-28 19:52:00,68.0,-99.9,-100.00,North,4,14.0,-999.0,0,-99.99,,,-99.99,,2013-04-29 00:52:00,
2013-04-28 20:01:00,68.0,-99.9,-100.00,North,10,15.0,-999.0,0,-99.99,,,-99.99,,2013-04-29 01:01:00,
2013-04-28 20:12:00,68.0,-99.9,-100.00,NNE,13,19.0,-999.0,0,-99.99,,,-99.99,,2013-04-29 01:12:00,
2013-04-28 20:22:00,66.0,-99.9,-100.00,South,174,14.0,-999.0,0,-99.99,,,-99.99,,2013-04-29 01:22:00,
2013-04-28 20:32:00,66.0,-99.9,-100.00,West,263,16.0,-999.0,0,-99.99,,,-99.99,,2013-04-29 01:32:00,
2013-04-28 20:42:00,66.0,-99.9,-100.00,East,89,16.0,-999.0,0,-99.99,,,-99.99,,2013-04-29 01:42:00,
2013-04-28 20:52:00,65.0,-99.9,-100.00,NNE,12,15.0,-999.0,0,-99.99,,,-99.99,,2013-04-29 01:52:00,
2013-04-28 21:02:00,64.0,-99.9,-100.00,North,5,11.0,-999.0,0,-99.99,,,-99.99,,2013-04-29 02:02:00,
2013-04-28 21:11:00,65.0,-99.9,-100.00,North,6,11.0,-999.0,0,-99.99,,,-99.99,,2013-04-29 02:11:00,
2013-04-28 21:22:00,65.0,-99.9,-100.00,NNW,327,4.0,-999.0,0,-99.99,,,-99.99,,2013-04-29 02:22:00,
2013-04-28 21:32:00,64.0,-99.9,-100.00,North,10,17.0,-999.0,0,-99.99,,,-99.99,,2013-04-29 02:32:00,
2013-04-28 21:42:00,63.0,-99.9,-100.00,North,3,9.0,-999.0,0,-99.99,,,-99.99,,2013-04-29 02:42:00,
2013-04-28 21:52:00,63.0,-99.9,-100.00,North,10,9.0,-999.0,0,-99.99,,,-99.99,,2013-04-29 02:52:00,
2013-04-28 22:02:00,62.0,-99.9,-100.00,North,-999,9.0,-999.0,0,-99.99,,,-99.99,,2013-04-29 03:02:00,
2013-04-28 22:12:00,61.0,-99.9,-100.00,NNE,15,17.0,-999.0,0,-99.99,,,-99.99,,2013-04-29 03:12:00,
2013-04-28 22:22:00,60.0,-99.9,-100.00,East,91,17.0,-999.0,0,-99.99,,,-99.99,,2013-04-29 03:22:00,
2013-04-28 22:33:00,58.0,-99.9,-100.00,NNE,17,26.0,-999.0,0,-99.99,,,-99.99,,2013-04-29 03:33:00,
2013-04-28 22:43:00,57.0,-99.9,-100.00,NNE,27,20.0,-999.0,0,-99.99,,,-99.99,,2013-04-29 03:43:00,
2013-04-28 22:53:00,57.0,-99.9,-100.00,North,-999,16.0,-999.0,0,-99.99,,,-99.99,,2013-04-29 03:53:00,
2013-04-28 23:03:00,57.0,-99.9,-100.00,North,-999,16.0,-999.0,0,-99.99,,,-99.99,,2013-04-29 04:03:00,
2013-04-28 23:13:00,55.0,-99.9,-100.00,NNW,343,14.0,-999.0,0,-99.99,,,-99.99,,2013-04-29 04:13:00,
2013-04-28 23:23:00,55.0,-99.9,-100.00,West,260,20.0,-999.0,0,-99.99,,,-99.99,,2013-04-29 04:23:00,
2013-04-28 23:33:00,55.0,-99.9,-100.00,West,259,20.0,-999.0,0,-99.99,,,-99.99,,2013-04-29 04:33:00,
2013-04-28 23:43:00,55.0,-99.9,-100.00,West,259,21.0,-999.0,0,-99.99,,,-99.99,,2013-04-29 04:43:00,
2013-04-28 23:52:00,55.0,-99.9,-100.00,NNE,17,20.0,-999.0,0,-99.99,,,-99.99,,2013-04-29 04:52:00,